RH
100 99 99 98 98 98 97 97 91 79 60 44 34 28 25 24 23 22 20 17 14 11 9 8 8 8 8 8 8 8 9 9 10 11 11 12 12 13 13 14 14 14 14 14 14 14 14 14 14 14 14 15 16 16 17 18 18 18 18 18 19 19 19 20 20 21 23 26 32 40 51 62 74 85 93 93 94 95 95 95 95 96 96 96 95 95
99 99 98 98 98 98 96 90 78 61 42 27 19 17 18 18 19 19 18 14 11 9 8 9 9 8 8 8 8 8 9 10 10 11 12 12 13 14 14 14 15 15 15 15 15 15 15 15 15 14 14 15 15 16 16 17 17 17 18 18 19 19 19 19 19 20 22 26 33 42 53 62 72 81 87 89 91 92 91 92 92 93 94 94 93 93
98 98 98 98 98 96 91 76 57 37 22 16 12 11 12 12 12 12 11 10 9 9 9 9 9 9 8 8 8 9 10 10 11 12 12 13 14 14 15 15 15 15 15 15 15 15 15 15 15 15 15 15 15 16 16 17 17 18 18 18 19 19 19 19 20 21 24 29 37 47 56 62 69 75 79 81 83 84 84 86 89 92 93 93 93 93
96 98 98 97 95 89 77 56 35 19 10 9 9 9 10 9 9 8 8 8 9 9 10 9 9 9 9 9 9 9 10 11 11 12 13 14 15 15 16 16 16 16 16 16 16 15 15 15 15 15 15 16 16 16 17 17 18 18 18 18 18 18 18 19 21 24 28 35 44 53 59 62 65 67 69 72 76 79 82 85 88 91 94 94 94 95
96 98 98 96 87 73 54 34 20 10 8 7 8 8 8 7 7 7 8 9 9 10 10 10 9 9 9 9 10 10 11 11 12 13 14 15 15 16 16 16 16 16 16 16 15 15 15 16 16 16 16 17 17 17 18 18 18 18 18 17 17 17 18 19 23 28 35 42 49 55 58 61 63 66 68 70 73 77 80 84 87 91 95 95 95 95
97 98 96 87 69 49 31 18 10 7 7 7 7 7 7 7 7 8 8 9 9 9 9 9 10 10 10 10 10 10 11 11 12 13 14 15 15 16 16 16 16 15 15 15 15 16 16 16 17 17 18 18 18 18 18 18 17 17 17 17 17 17 18 21 26 32 39 43 49 54 58 60 63 65 66 69 72 76 78 81 85 90 94 94 94 94
98 95 87 68 47 28 14 9 6 6 7 6 6 7 7 7 7 8 8 8 9 9 9 9 9 10 10 10 10 11 11 11 12 13 14 14 15 15 15 15 15 15 15 15 16 16 17 17 18 18 18 19 19 18 18 18 17 17 17 16 16 17 18 23 29 35 40 43 47 52 56 59 61 64 67 70 73 75 76 78 83 88 93 93 94 94
94 84 68 45 26 12 5 5 6 6 7 6 6 7 7 7 7 8 8 8 9 8 8 9 9 10 10 10 10 11 11 11 12 12 13 14 14 15 15 15 15 15 15 16 17 18 18 19 19 19 20 19 19 19 18 18 17 17 16 16 16 17 20 25 31 35 39 42 46 50 54 57 60 63 67 69 71 74 76 78 80 85 93 92 93 94
82 64 42 23 11 4 3 4 5 6 7 7 7 7 7 7 7 7 8 8 8 8 8 8 8 9 9 10 10 11 11 12 12 12 13 14 15 15 15 15 15 16 16 17 18 19 20 20 20 20 20 20 20 19 18 18 17 17 16 16 17 18 21 26 32 36 38 41 43 46 49 53 58 62 65 67 69 71 75 77 80 84 89 89 91 93
63 40 20 9 4 3 3 4 5 7 7 7 8 7 7 7 7 7 7 7 7 8 8 8 8 8 9 10 10 11 12 12 12 13 14 15 15 16 16 16 16 17 18 19 20 20 21 21 21 21 21 20 20 19 18 18 17 17 16 17 18 20 23 27 31 34 36 38 40 43 45 49 55 60 63 65 68 70 73 78 81 84 86 88 90 93
40 22 8 4 2 3 4 5 6 7 8 8 8 7 7 7 7 7 7 7 7 7 7 8 8 8 9 10 11 12 12 12 12 13 14 15 16 16 17 17 17 18 19 20 21 22 22 22 22 22 21 21 20 19 18 18 17 17 17 17 18 21 24 26 29 31 35 36 37 39 42 46 51 56 60 64 67 69 71 77 81 84 85 87 90 92
22 10 4 3 4 5 6 7 7 8 8 7 7 7 7 7 7 8 8 7 7 7 7 8 8 9 10 11 12 12 12 12 12 13 13 15 16 17 17 17 18 18 19 21 22 22 23 23 23 22 22 21 20 19 19 18 18 18 18 18 19 21 23 25 26 28 31 31 34 37 40 43 49 55 60 63 66 68 71 80 84 85 87 88 90 92
11 5 3 4 5 6 7 8 8 8 7 7 7 7 7 8 8 8 8 7 7 7 7 8 9 10 11 12 12 13 13 13 12 13 13 15 16 17 17 17 18 18 19 21 22 23 22 23 22 22 22 21 20 20 19 19 18 18 18 19 20 21 22 23 24 25 26 28 30 34 38 44 50 56 60 64 67 70 72 79 83 86 89 88 89 92
5 3 4 5 7 8 8 8 8 8 7 7 7 7 8 8 8 8 8 8 8 8 8 9 10 10 11 12 13 14 14 13 13 13 13 15 16 17 17 18 18 18 19 21 22 22 22 22 22 22 21 21 20 20 19 19 19 19 19 19 19 19 19 20 21 23 25 27 30 35 44 51 55 58 61 66 69 72 74 78 82 86 88 89 91 93
4 4 5 7 8 8 8 8 8 7 7 7 7 7 8 8 8 8 8 8 8 8 9 10 10 11 11 13 14 15 15 15 14 13 13 15 17 18 18 18 18 19 19 20 21 22 22 21 21 21 20 20 20 19 19 19 19 19 19 18 18 17 18 19 22 24 27 32 38 45 52 56 60 64 68 70 72 75 77 79 85 89 88 89 91 93
4 5 7 7 8 8 8 8 7 7 7 7 7 7 8 8 8 8 8 8 9 9 10 10 10 11 11 14 15 16 17 16 15 14 14 15 17 18 18 18 18 18 19 20 20 20 20 20 20 19 19 19 19 19 19 19 19 19 19 18 18 19 20 23 27 31 36 42 49 56 61 64 66 69 72 75 77 79 81 84 88 91 91 92 93 93
5 6 7 8 8 8 8 7 7 7 7 7 7 7 8 8 8 9 9 9 10 10 11 12 12 12 12 14 16 18 18 18 17 15 15 15 17 18 18 18 17 17 18 18 19 19 18 18 18 18 18 18 18 18 18 19 19 19 19 20 22 24 27 31 36 43 49 55 59 63 67 68 71 74 77 79 81 83 85 88 90 92 92 93 93 94
6 7 8 8 8 7 7 7 7 7 7 8 8 7 7 8 8 9 10 10 11 12 12 13 14 15 15 15 17 20 20 19 18 17 16 16 16 18 18 17 17 16 16 17 17 17 16 17 17 17 17 17 17 18 18 19 20 21 22 25 28 32 36 42 48 54 60 65 68 71 72 74 76 78 80 82 84 86 88 90 91 91 92 93 93 93
7 7 8 8 7 7 7 7 7 7 7 8 8 8 8 8 9 10 11 12 13 13 14 14 15 16 17 17 19 21 22 21 20 19 17 16 16 17 17 17 16 15 14 14 14 15 15 16 17 17 17 18 18 19 20 21 23 26 29 32 36 41 46 52 58 64 69 72 74 75 77 77 79 81 83 85 86 88 90 91 91 92 93 93 93 93
7 8 8 7 7 7 7 7 7 7 8 8 8 8 8 9 10 11 12 13 14 15 15 15 16 17 18 18 20 21 23 23 22 20 18 16 16 16 17 16 15 14 13 13 13 14 14 16 18 19 19 20 21 23 25 27 31 34 38 42 46 50 54 60 65 69 73 75 76 77 78 79 81 83 85 86 88 89 91 91 92 92 93 93 93 93
8 7 7 7 7 7 7 7 7 8 8 8 8 8 9 10 11 12 13 14 15 15 16 16 17 18 19 20 21 22 24 23 22 21 18 16 15 15 17 16 15 14 12 13 13 14 16 18 20 22 24 25 27 29 32 36 40 43 47 50 54 57 60 65 68 72 75 76 77 78 79 80 82 84 85 87 89 90 91 92 92 92 93 93 93 93
7 7 7 7 7 7 7 8 8 9 9 9 9 9 10 11 12 13 14 15 15 16 16 17 18 19 20 21 22 23 24 24 23 21 19 16 15 15 17 16 15 14 13 13 15 17 19 21 24 27 29 32 34 37 41 44 48 52 55 57 60 62 64 67 70 72 75 76 78 79 80 81 82 84 85 88 90 91 91 92 92 92 92 93 93 93
7 7 7 7 8 8 8 8 9 9 10 10 10 10 12 13 14 15 16 16 16 17 17 18 18 19 20 21 22 23 24 24 23 22 20 17 15 15 17 17 16 15 14 15 17 19 22 25 28 31 35 38 41 44 48 51 54 57 60 62 64 66 67 68 70 72 74 75 76 78 80 81 82 83 85 87 90 91 92 92 92 92 92 92 92 93
7 7 8 8 8 9 9 9 9 10 10 10 11 12 13 15 16 16 17 17 17 18 18 18 18 19 20 21 21 22 24 24 23 22 21 19 16 15 17 17 18 17 17 18 21 23 26 29 32 36 40 43 47 50 52 55 58 61 63 65 67 68 68 69 70 71 72 74 75 77 80 81 82 83 85 87 89 91 92 92 92 92 92 92 92 92
7 8 8 8 9 9 9 10 10 10 10 11 12 13 15 16 17 17 17 18 18 19 19 19 19 19 20 20 21 22 24 23 22 21 21 19 17 16 18 18 19 19 19 21 24 27 30 32 36 40 44 47 51 53 56 58 61 63 65 67 68 68 68 69 69 70 72 73 75 77 80 82 82 83 85 87 89 91 91 92 92 92 92 92 92 92
8 8 8 9 9 10 10 10 11 12 12 12 13 14 16 17 17 18 18 19 20 20 20 20 20 20 19 19 20 21 23 22 21 20 20 20 19 18 19 20 20 21 22 25 28 32 34 36 40 43 48 51 53 56 58 61 63 65 66 67 68 68 68 69 69 70 72 73 75 78 80 82 83 84 85 88 90 91 91 91 91 91 91 92 92 91
8 8 8 9 10 10 11 12 13 14 14 14 15 16 17 18 18 19 19 20 21 21 21 21 21 20 20 20 20 20 21 21 21 20 20 21 21 21 20 21 22 24 26 29 33 36 38 40 43 47 51 53 56 58 61 63 65 67 67 68 68 68 69 69 70 71 73 74 76 78 81 83 84 85 86 88 90 91 91 91 91 91 91 91 91 90
9 9 10 10 11 12 13 14 15 16 16 17 17 18 19 19 20 20 20 21 21 22 22 22 23 23 22 21 20 20 20 21 22 22 20 23 23 23 22 23 24 26 29 34 37 39 41 44 47 51 54 56 58 60 63 65 66 67 68 68 68 69 69 70 71 72 74 76 78 80 82 83 84 85 87 89 90 91 91 91 91 91 91 91 90 89
10 10 10 11 12 13 14 15 16 16 17 18 18 19 20 20 20 20 21 21 22 22 23 24 24 25 25 22 20 19 19 21 22 22 22 25 25 23 23 25 26 29 34 38 41 43 45 47 51 54 58 59 61 62 64 66 67 67 68 68 69 70 70 71 72 74 76 78 79 81 83 85 85 86 87 89 90 91 91 91 91 91 91 91 90 89
10 11 11 12 13 14 15 16 16 17 18 18 19 19 20 21 21 21 22 22 23 23 24 24 25 25 25 23 20 19 20 22 22 23 23 26 26 25 26 28 30 34 39 45 48 50 51 52 54 57 60 61 62 64 65 67 67 68 68 69 70 71 72 73 75 76 78 79 81 82 84 85 86 86 88 89 90 91 90 91 91 91 90 90 90 89
11 12 12 13 14 15 16 16 17 18 18 18 19 19 20 20 21 22 22 23 24 25 25 26 26 25 25 23 22 21 21 22 23 24 24 27 28 28 29 31 34 38 44 51 57 61 63 60 59 59 61 62 63 65 67 68 68 69 70 71 73 74 75 76 77 78 80 81 82 83 85 86 87 87 88 89 90 90 90 90 90 91 90 90 90 89
12 13 14 14 15 16 16 17 17 18 18 18 19 19 20 21 22 23 24 25 26 26 26 26 26 25 23 22 21 20 19 21 24 25 25 29 30 31 33 35 39 44 50 56 63 69 73 70 66 64 63 63 64 66 68 69 70 71 72 74 76 77 78 78 79 80 81 82 83 84 85 85 86 87 88 89 90 90 90 90 90 90 90 90 90 90
13 14 14 15 16 16 17 17 18 18 18 19 19 20 21 22 23 24 25 26 27 27 27 26 25 23 21 19 19 18 18 21 24 26 27 31 34 35 37 41 45 50 56 61 67 73 78 77 74 70 68 66 66 68 69 71 72 73 74 76 78 80 81 80 81 81 82 83 84 85 85 85 86 87 89 89 90 90 90 90 90 90 90 90 90 90
14 15 15 16 16 17 17 17 18 18 18 19 20 20 22 23 24 25 26 27 27 27 26 25 23 21 19 18 18 19 20 23 27 30 32 35 37 40 43 46 51 57 62 67 72 77 80 80 79 77 75 71 69 69 70 71 73 74 76 79 81 82 83 82 82 83 84 84 85 85 86 86 87 88 89 89 89 89 89 90 90 90 90 90 90 90
15 16 17 17 17 18 18 18 18 18 19 19 20 21 22 23 25 26 27 27 26 26 24 22 21 19 19 19 21 23 24 28 32 35 37 40 42 45 49 53 59 64 69 73 77 80 83 83 83 82 82 76 73 71 72 72 73 74 77 80 82 84 85 85 85 85 86 86 86 86 86 87 88 89 89 89 89 89 89 89 89 89 90 90 90 90
16 17 18 18 18 18 18 18 19 19 19 19 20 21 22 23 24 25 25 25 24 22 21 20 19 19 20 22 25 28 31 35 38 41 43 46 49 52 56 60 65 70 75 79 82 85 86 85 85 85 85 82 78 75 73 73 73 74 76 79 81 84 85 86 86 86 87 87 87 87 88 89 89 90 89 89 89 89 89 89 89 89 89 89 90 90
17 18 18 18 18 18 18 18 18 18 18 19 19 20 21 22 23 23 22 21 20 19 18 19 20 22 25 28 32 35 38 42 45 48 50 53 57 60 63 67 71 75 79 82 85 87 88 88 87 87 86 85 82 78 75 74 74 75 76 78 80 83 86 87 87 87 88 88 88 89 89 89 89 89 89 89 89 88 87 88 89 89 89 89 89 89
18 18 18 18 18 18 18 17 17 18 18 18 18 19 20 20 20 19 18 18 18 18 18 21 24 28 32 36 39 43 46 48 51 54 57 60 63 66 69 72 75 78 82 84 86 88 90 90 89 88 86 85 83 81 78 78 78 78 80 80 81 83 86 87 88 89 89 89 89 89 89 89 89 89 90 89 89 87 87 87 87 88 88 89 89 89
18 18 18 18 17 17 17 17 17 17 18 18 18 18 18 18 17 17 16 17 18 20 23 27 32 36 41 44 47 50 52 55 57 60 63 65 68 70 73 76 78 81 83 85 87 89 91 91 90 89 88 86 83 81 79 80 81 83 84 83 83 84 85 87 89 90 90 90 90 90 90 89 89 90 90 90 90 89 88 87 87 87 87 87 88 89
19 18 18 17 17 17 17 17 17 17 18 18 18 17 16 16 15 16 17 19 22 26 31 36 41 45 48 51 54 56 58 60 63 65 67 69 71 73 75 77 80 82 84 86 88 90 91 90 89 88 88 87 85 82 78 80 83 86 88 88 87 86 85 87 89 90 90 90 90 90 90 90 90 90 90 90 90 90 90 89 88 88 88 88 87 87
18 18 18 17 17 17 18 18 18 18 18 18 17 16 15 14 15 17 20 25 30 35 40 44 48 52 55 57 59 60 62 64 66 68 70 71 73 75 76 78 80 82 85 87 89 89 90 89 88 88 88 88 86 84 81 81 85 88 90 90 89 88 87 88 89 90 90 90 90 90 90 90 90 90 90 90 90 90 90 90 90 89 89 90 90 89
18 18 18 18 18 18 18 18 18 18 18 17 16 15 14 14 17 21 26 32 38 43 48 51 53 55 58 61 63 64 64 65 67 69 70 72 74 75 77 78 80 82 85 87 88 88 88 87 87 87 88 89 88 85 83 83 85 88 91 90 89 88 88 88 89 90 90 90 90 90 90 90 90 90 90 90 90 91 91 91 91 90 89 89 90 90
18 18 18 18 18 18 18 19 19 18 18 16 15 14 15 18 23 29 35 41 45 48 51 53 55 56 57 60 62 64 66 67 68 69 70 72 74 75 77 79 81 83 85 86 87 87 86 86 86 86 87 88 88 87 85 84 85 88 90 90 89 89 89 88 88 89 90 90 90 90 90 90 90 90 90 90 91 91 91 91 91 91 90 89 89 90
18 18 18 18 19 19 19 19 18 17 16 14 14 16 20 25 31 37 43 47 50 52 54 55 56 58 59 59 60 62 65 67 68 69 71 73 75 76 78 81 83 85 86 86 86 86 85 85 85 86 86 86 86 86 85 86 87 89 90 90 90 90 90 89 89 89 89 90 90 90 90 90 90 90 90 90 90 91 91 91 91 91 91 90 90 91
18 18 19 19 19 19 19 18 17 15 14 14 17 21 27 34 39 44 48 52 54 56 57 57 58 59 59 59 59 60 61 64 67 70 73 75 78 80 82 83 85 86 86 86 86 86 86 86 85 85 85 85 85 85 85 87 88 89 90 90 90 90 90 90 90 90 90 90 90 90 90 90 90 89 89 88 89 90 91 91 91 91 91 91 91 91
19 19 19 19 19 19 18 17 15 14 14 17 22 28 35 41 46 50 53 55 57 58 59 59 59 59 59 59 59 59 60 62 66 69 73 76 79 81 83 84 85 85 85 85 85 85 86 86 85 85 84 83 83 84 86 88 89 90 90 90 90 90 90 90 90 90 90 90 90 90 90 90 90 89 88 88 88 89 90 91 91 91 91 91 91 91
19 19 19 19 18 18 16 15 14 15 18 23 29 35 42 47 51 54 56 57 58 59 60 60 60 60 60 60 61 62 63 65 68 71 75 77 79 82 83 84 84 84 84 84 83 84 84 85 85 85 85 85 84 84 85 88 90 90 90 90 90 90 90 90 90 90 91 91 91 90 90 90 90 89 89 88 88 89 90 91 91 91 91 91 91 91
18 19 19 18 17 16 14 13 15 18 23 30 36 43 48 51 54 56 58 59 59 60 60 59 59 59 60 61 64 66 69 71 74 76 78 80 82 83 84 84 84 84 83 83 82 82 82 82 83 85 86 87 87 86 86 88 89 90 90 90 90 90 90 90 91 91 91 91 91 91 91 90 90 90 89 88 88 88 89 90 91 91 91 91 91 91
18 18 18 16 15 13 13 14 18 23 30 37 43 48 53 56 57 59 59 60 60 60 60 60 60 60 61 63 66 70 73 77 80 82 83 85 86 86 86 86 86 85 84 83 82 81 81 81 82 83 86 87 88 89 89 89 89 90 90 90 90 90 90 90 91 91 91 90 90 90 90 91 91 90 90 89 88 87 88 90 91 91 91 91 91 91
18 18 17 15 13 13 13 18 23 30 37 43 48 52 56 58 60 60 60 60 60 60 60 60 61 62 64 67 70 73 77 81 84 86 87 88 89 89 88 88 88 87 87 86 84 82 82 81 81 82 85 87 89 90 90 90 89 89 89 90 91 91 91 91 91 91 90 89 88 88 89 90 90 90 90 90 89 87 87 89 90 91 91 91 91 91
18 17 15 13 13 14 17 23 30 37 43 48 51 54 57 59 60 60 60 60 60 60 60 62 63 65 67 70 74 77 81 84 87 88 89 89 90 90 89 89 89 89 89 88 87 85 85 84 83 83 83 87 90 91 91 90 90 89 89 90 90 91 91 91 90 90 89 88 88 88 89 90 90 91 91 90 90 89 87 88 89 91 92 92 92 92
Wind_Speed
20 21 21 22 22 23 24 24 25 25 25 24 24 24 24 25 25 26 26 27 28 29 29 30 30 30 30 29 28 27 27 27 27 26 26 26 26 26 26 27 27 27 26 27 26 27 27 27 27 27 27 27 27 27 27 27 27 27 27 27 27 27 27 27 27 27 27 27 27 27 26 25 23 22 22 22 22 22 22 22 22 22 22 23 23 23
19 20 21 22 23 23 24 24 24 24 24 24 23 23 23 24 24 25 26 27 28 28 29 29 29 29 29 28 28 27 27 27 26 26 26 26 26 27 27 27 27 27 27 27 27 27 27 27 27 27 27 27 27 27 27 27 27 27 27 27 28 28 28 28 28 28 28 27 27 26 26 24 23 22 22 22 22 23 23 23 23 23 23 24 24 25
19 20 22 23 23 23 24 24 24 23 23 23 23 23 23 23 24 25 25 26 27 28 28 28 28 28 28 28 27 27 27 27 26 26 26 26 27 27 27 27 27 27 27 27 27 27 27 27 27 27 27 27 27 27 27 27 27 27 27 28 28 28 28 28 28 28 27 27 26 26 25 24 23 22 23 23 23 23 24 24 24 24 24 25 25 26
20 21 22 23 23 23 23 23 23 22 22 22 22 22 22 23 24 24 25 26 26 26 26 27 27 27 27 27 27 27 26 26 26 26 26 26 26 27 27 27 27 27 27 27 27 27 27 27 27 27 27 26 26 27 27 27 27 27 27 28 28 28 28 28 28 27 27 26 25 25 24 23 23 23 23 24 24 24 24 24 24 24 24 25 25 25
21 22 23 23 23 23 22 22 22 22 22 22 22 22 23 23 24 25 25 25 25 25 25 25 25 26 26 26 26 26 26 26 25 25 25 25 26 26 26 26 26 26 26 26 26 26 26 26 26 26 26 26 26 26 27 27 27 27 27 27 27 27 27 27 26 26 25 25 24 24 24 23 23 23 24 24 24 24 24 24 24 24 24 24 24 24
23 23 23 22 22 22 22 22 21 21 21 22 22 22 23 24 24 24 25 24 24 23 23 23 24 25 25 25 25 25 24 25 25 25 24 24 24 25 25 25 25 25 26 26 26 25 25 25 25 25 25 26 26 26 26 26 26 26 26 26 26 26 26 26 25 25 24 24 24 24 24 23 23 24 24 24 24 24 24 24 23 23 23 23 23 23
23 23 22 22 21 21 21 21 21 21 21 21 22 23 24 24 24 24 24 23 23 22 22 22 22 23 23 23 23 23 23 23 24 24 23 23 23 23 24 24 24 25 25 25 24 24 24 24 24 24 25 25 26 26 26 26 25 25 25 24 24 25 25 24 24 24 24 24 24 24 24 24 24 24 24 24 24 24 24 24 24 23 23 23 23 23
22 22 22 21 21 21 21 21 21 21 21 21 22 23 24 24 24 24 23 23 22 21 21 20 20 20 21 21 22 22 22 23 23 23 23 22 22 22 23 23 23 23 23 23 23 23 23 23 23 24 24 25 25 25 25 24 24 24 24 24 24 24 24 24 24 24 24 24 24 24 24 24 24 24 24 24 24 24 24 24 24 23 22 22 23 23
21 21 21 21 20 20 20 21 21 21 21 21 22 23 24 24 24 23 22 22 22 21 21 20 19 19 19 20 21 21 22 22 22 22 22 22 22 22 22 22 22 22 22 22 22 22 22 22 22 23 23 24 24 24 24 24 23 23 23 23 23 23 23 24 24 24 24 24 24 24 24 25 25 24 24 24 24 24 24 23 23 22 22 22 23 23
20 20 20 20 20 20 20 20 21 21 21 22 22 23 24 24 24 23 22 22 21 21 21 21 20 19 19 19 20 20 21 21 21 21 21 21 21 21 22 22 22 21 21 21 20 21 21 21 21 22 23 23 24 24 23 23 23 23 23 23 23 23 23 24 24 24 24 25 25 24 25 25 25 25 24 24 24 23 23 23 22 22 22 22 22 22
19 19 19 19 19 19 19 19 20 21 22 22 23 24 24 24 24 23 23 22 22 22 21 21 21 21 21 20 20 20 20 20 20 20 19 19 20 20 21 21 21 21 20 20 19 20 20 20 21 21 22 23 23 23 23 23 23 23 23 23 23 23 24 24 24 25 25 25 25 25 25 25 25 25 25 24 23 22 22 22 21 21 21 22 22 22
19 19 19 19 19 19 19 19 20 21 22 22 23 24 24 24 23 23 23 23 23 23 22 22 22 22 22 21 21 20 20 19 19 19 19 19 19 20 20 19 19 19 19 18 18 19 19 20 20 21 22 23 23 23 23 23 23 23 23 23 23 23 24 24 25 25 25 25 25 25 25 25 25 25 24 24 23 22 22 21 21 21 21 22 22 22
18 18 18 19 19 19 19 19 20 21 22 22 22 23 23 23 22 22 23 23 23 23 23 22 22 22 22 22 21 21 20 20 19 19 18 19 20 20 20 19 19 19 18 18 17 17 18 19 20 21 22 23 23 23 23 23 23 23 23 23 23 23 24 24 24 25 25 25 25 25 25 25 25 25 24 23 22 22 21 21 21 21 21 22 22 22
18 18 18 18 18 19 19 20 20 21 22 22 22 21 21 22 22 22 22 22 22 23 23 23 22 22 22 22 22 22 21 21 20 19 18 18 19 20 21 20 19 18 18 17 17 17 18 19 20 21 22 22 22 23 22 22 22 22 22 22 22 23 23 23 24 24 24 24 25 25 25 25 25 24 23 22 22 21 22 22 22 21 21 22 22 21
17 17 17 18 18 19 19 20 20 21 21 21 21 21 21 21 21 22 22 22 22 23 23 22 22 22 22 22 23 23 23 22 21 21 19 19 19 20 21 20 19 17 16 16 16 17 17 18 20 21 21 22 22 21 21 21 21 21 21 21 22 22 22 22 23 23 23 23 24 24 24 24 24 23 23 22 22 22 22 22 21 21 21 21 21 20
16 16 17 17 18 19 19 20 20 20 20 21 20 20 20 20 21 21 21 22 23 23 23 24 24 24 23 22 23 24 24 24 23 23 22 20 20 20 20 20 19 17 15 15 16 16 17 18 19 20 20 20 20 20 20 19 20 20 20 20 21 21 21 21 21 22 22 23 23 23 24 23 23 22 22 22 22 22 22 22 21 21 21 21 20 20
16 16 16 17 18 19 20 20 20 20 20 20 20 20 20 20 20 21 21 21 22 23 24 25 25 26 26 24 24 24 25 25 25 24 23 22 21 20 20 20 19 17 15 15 16 16 17 17 18 19 19 19 19 18 18 18 18 18 19 19 20 20 20 21 21 21 21 22 22 23 23 23 22 22 22 22 22 22 22 21 21 21 20 20 19 19
16 16 16 17 18 19 19 20 19 19 19 19 19 19 19 19 20 20 20 21 22 23 24 24 25 26 26 26 26 25 26 26 26 26 25 23 21 20 20 19 18 16 15 16 16 16 16 17 17 18 18 18 17 17 16 17 17 18 19 19 20 20 21 21 21 21 21 22 22 22 23 22 22 22 22 22 22 22 21 21 21 20 19 18 18 17
16 16 17 17 18 18 19 19 19 19 18 18 18 19 19 19 19 19 20 21 21 22 23 24 24 25 26 26 26 26 26 26 26 27 26 25 23 21 21 20 18 17 15 16 16 16 16 16 17 17 17 16 16 16 16 17 18 19 20 20 21 21 22 22 22 22 22 22 22 22 22 22 22 22 22 22 22 21 21 20 19 19 18 17 16 16
16 17 17 17 17 18 18 18 18 18 17 17 17 18 18 18 18 19 20 21 21 22 23 23 24 25 26 26 26 26 26 26 27 27 27 25 24 23 23 22 21 19 17 16 16 16 16 17 17 16 16 16 15 16 17 18 19 20 21 21 22 22 22 22 22 22 22 22 22 22 22 21 21 21 21 21 21 20 20 19 19 18 16 15 15 15
16 17 17 17 17 17 17 18 17 17 16 17 17 17 17 18 19 19 20 21 22 22 23 24 24 25 26 26 26 26 26 26 26 27 27 26 25 24 24 24 23 21 19 18 17 16 16 17 17 17 16 16 16 17 18 19 20 21 21 22 22 22 22 22 22 23 23 23 22 22 22 21 20 20 20 20 20 19 19 18 17 16 15 14 14 15
16 16 17 17 17 16 16 16 16 16 16 16 16 17 17 18 19 20 21 21 22 22 23 23 24 24 25 25 26 25 26 26 26 27 28 28 27 26 26 26 25 23 22 21 20 18 17 18 18 18 17 17 17 18 19 20 21 22 22 22 22 22 22 22 22 23 23 23 23 22 22 21 20 19 19 19 19 18 18 17 15 14 13 13 14 15
15 16 16 16 16 16 16 16 16 16 16 16 16 17 18 18 19 20 21 21 22 22 23 23 23 23 24 25 25 25 25 25 26 26 27 29 29 29 28 28 27 26 25 24 23 21 20 19 19 19 19 19 19 20 21 22 22 23 23 22 22 21 21 21 22 22 22 22 22 22 21 21 19 19 19 19 18 17 16 15 14 12 12 13 14 16
14 15 15 15 15 15 15 15 16 16 16 17 17 17 18 19 19 20 21 22 22 23 23 24 24 24 24 25 25 25 25 25 26 26 27 29 30 29 29 30 30 30 28 26 25 24 22 21 20 20 20 21 22 22 23 23 24 24 23 22 21 21 20 20 21 21 21 21 21 21 21 20 19 19 18 18 17 16 15 14 12 11 11 13 16 17
14 14 14 14 14 14 15 15 16 17 17 17 18 18 19 20 20 21 22 23 23 24 24 25 25 25 25 25 26 26 26 25 25 26 28 30 31 30 29 30 32 32 31 29 27 26 25 24 22 22 22 23 24 24 24 25 25 24 23 22 21 20 19 19 20 20 20 20 20 20 20 20 19 19 18 17 16 15 14 12 11 11 12 14 17 18
13 13 13 13 14 14 15 15 17 18 19 19 19 19 20 20 21 22 23 23 24 24 25 25 25 25 25 25 26 26 26 26 26 26 28 30 31 32 30 31 32 33 33 31 30 29 28 27 25 24 24 24 25 26 26 26 25 24 23 21 20 19 18 18 18 19 19 19 19 19 19 19 19 18 17 16 14 13 12 11 11 11 13 15 17 18
12 12 12 13 13 14 14 15 16 18 19 20 20 20 20 21 21 22 22 22 23 24 24 25 26 26 26 26 26 27 26 26 27 27 28 29 31 32 32 32 33 34 35 34 32 31 31 30 29 27 26 26 26 26 27 26 25 24 22 20 18 18 17 17 17 18 18 18 18 18 18 18 18 18 16 14 12 11 11 10 11 12 14 16 18 19
11 11 12 12 12 13 14 15 16 17 18 19 20 21 21 21 21 21 22 22 23 23 24 25 26 27 28 28 27 27 26 26 27 28 29 29 30 32 32 32 33 34 36 36 35 34 32 32 31 30 29 28 27 27 27 26 24 22 20 18 17 16 16 16 17 17 17 17 17 17 17 17 17 17 15 13 10 10 10 10 11 12 14 16 17 18
11 11 11 12 12 13 14 14 15 16 17 18 19 19 20 20 20 21 22 22 23 23 23 24 25 26 27 28 28 27 26 26 27 29 29 30 31 31 32 32 33 34 36 38 38 37 35 33 32 32 31 30 29 28 27 25 23 21 19 17 16 15 15 16 16 16 16 16 16 16 16 16 16 15 13 10 9 9 10 10 11 13 14 16 17 18
10 11 11 12 12 13 14 14 15 16 17 18 18 19 19 20 20 21 22 22 22 23 23 24 24 25 26 28 28 28 26 26 27 28 29 30 31 32 32 33 33 34 35 37 39 40 38 35 33 32 31 30 29 28 26 24 22 20 18 16 15 14 15 15 15 15 15 15 15 15 15 15 15 13 10 8 7 9 10 11 12 13 14 16 16 17
11 11 11 12 13 13 14 15 15 16 17 18 19 19 20 21 21 21 22 22 22 23 23 24 24 24 25 27 29 29 28 26 26 27 28 30 31 32 32 34 34 34 33 34 35 36 37 38 36 33 31 30 29 28 26 24 21 20 18 16 15 14 14 14 14 14 14 14 14 14 14 13 12 10 8 6 7 8 10 10 11 12 14 15 15 15
11 11 11 12 13 14 14 15 16 17 18 19 19 20 21 21 22 22 22 22 22 22 23 23 24 24 24 24 26 28 28 27 26 27 28 29 30 31 32 33 34 34 33 32 31 30 30 36 38 36 32 30 29 28 26 23 21 19 18 16 15 14 13 13 13 13 13 13 13 13 12 11 10 8 6 6 6 8 9 10 11 12 12 13 13 14
11 11 12 13 13 14 15 16 16 17 18 19 20 20 21 21 22 22 22 22 22 22 22 23 24 24 24 24 24 25 26 26 26 27 28 29 31 32 32 33 34 34 33 32 32 31 30 34 37 37 35 32 30 28 26 23 21 19 17 16 15 13 13 13 13 13 13 13 13 12 11 10 9 8 7 7 7 8 9 10 11 11 11 12 12 12
11 11 12 13 13 14 15 16 17 18 19 19 20 20 20 21 21 21 21 21 21 21 21 22 23 24 25 25 25 25 25 24 25 27 28 29 30 31 32 32 33 33 33 33 33 32 33 34 35 36 36 34 31 28 26 23 21 19 17 16 15 14 13 13 13 13 14 14 14 13 12 11 10 10 9 8 8 8 9 10 10 10 10 10 10 11
11 11 12 13 14 14 15 16 17 18 18 19 19 20 19 19 19 19 19 20 20 20 21 21 22 23 24 25 26 26 26 24 25 26 28 29 30 31 32 31 31 32 32 32 33 33 33 34 34 34 35 35 32 29 25 22 20 18 17 16 15 14 13 13 14 14 15 15 15 14 14 13 13 12 11 10 9 9 9 9 10 9 9 8 8 9
10 11 12 13 13 14 15 16 17 17 18 18 19 19 18 18 18 18 18 19 19 20 20 21 21 22 23 24 25 26 26 26 26 26 27 28 29 30 31 30 30 30 31 31 32 32 33 33 33 32 32 33 32 30 26 22 20 18 17 17 16 14 14 14 14 15 15 16 16 16 16 15 14 13 11 10 9 9 9 9 9 9 9 9 8 8
10 11 12 13 13 14 15 16 16 17 18 18 18 18 17 17 17 17 17 18 18 19 20 20 21 22 23 24 25 26 26 27 27 27 28 29 29 29 29 30 29 29 28 29 30 31 31 32 32 32 31 30 30 30 28 24 21 19 18 18 18 16 15 14 15 15 16 16 16 17 17 16 15 13 11 10 9 8 8 8 8 8 8 8 8 7
10 11 12 13 13 14 15 16 17 17 18 18 17 17 17 17 17 17 18 18 18 19 19 20 21 22 23 24 25 26 26 27 28 28 28 29 28 28 28 29 28 27 27 27 27 28 28 29 30 31 31 29 29 28 27 25 23 22 21 20 20 18 17 16 15 16 16 16 16 17 17 16 15 14 12 11 10 9 8 7 6 6 6 6 6 5
11 11 12 13 14 15 16 16 17 17 18 17 17 17 17 17 17 17 18 18 18 19 19 20 20 22 23 24 25 26 27 27 27 28 28 28 27 27 27 27 27 27 26 25 25 25 26 26 27 28 29 29 29 28 26 25 24 23 23 23 22 20 18 17 17 17 17 16 16 16 16 16 15 14 14 12 11 10 8 7 7 6 6 5 3 2
11 12 13 14 15 16 16 17 17 18 17 17 17 17 17 17 17 17 17 18 18 19 19 20 20 21 22 24 25 26 27 27 27 27 26 26 25 25 25 26 26 26 25 24 24 23 24 25 26 26 26 27 27 27 26 24 23 23 24 25 25 23 20 19 18 18 17 16 16 15 16 16 16 15 14 13 11 10 9 8 7 7 7 6 5 3
11 12 13 14 15 16 17 17 17 17 17 17 17 17 17 17 16 16 16 17 18 18 19 20 20 20 21 22 23 24 25 26 25 25 24 24 24 24 24 24 25 25 25 24 23 23 23 24 25 25 25 25 26 26 25 24 23 23 23 24 25 24 22 21 19 19 17 16 15 15 15 15 16 15 14 12 10 8 8 8 8 7 7 7 7 6
11 12 14 15 16 16 17 17 17 17 17 17 16 16 17 17 17 17 17 18 19 19 20 20 21 21 21 20 20 21 22 22 23 23 22 22 22 22 23 23 24 25 25 24 24 23 23 24 24 24 24 24 24 24 24 23 23 22 23 23 25 25 24 22 20 19 18 16 15 15 14 15 15 15 14 12 9 7 7 7 7 6 6 6 6 7
12 13 14 15 16 16 17 17 16 16 16 16 16 16 16 17 18 19 19 20 20 21 21 21 22 22 21 20 19 18 18 19 20 20 21 21 22 22 22 23 23 24 24 24 24 25 25 24 23 22 22 22 22 22 23 23 23 23 22 23 24 24 24 23 21 19 18 17 15 14 14 14 14 14 14 11 8 6 5 5 5 5 5 5 5 6
12 14 15 15 16 16 16 16 15 15 15 15 15 16 17 18 19 19 20 21 21 22 22 23 23 22 22 21 19 17 17 17 18 19 19 20 21 22 22 22 22 23 23 23 24 25 26 25 23 21 19 19 20 21 22 22 23 23 23 23 23 23 23 23 22 20 19 17 15 14 13 14 14 14 13 11 8 5 3 3 3 3 4 5 5 5
13 14 15 15 15 15 14 14 14 14 15 15 16 16 17 18 19 20 20 21 22 22 23 23 24 23 22 21 20 19 18 18 18 18 19 19 20 20 21 21 21 22 22 23 23 25 25 25 23 21 18 17 18 19 20 22 23 24 24 23 22 22 22 22 21 20 20 18 16 14 13 14 14 14 13 11 8 6 4 2 1 2 3 4 5 5
13 13 14 14 14 13 13 13 13 14 15 15 16 17 17 18 19 20 21 22 22 23 23 23 23 23 24 24 23 23 23 22 21 20 20 19 18 18 18 19 19 20 21 22 23 24 24 24 23 21 20 19 18 19 20 21 23 24 24 23 23 23 22 21 20 19 18 17 16 14 13 13 13 13 13 11 9 7 5 3 1 1 1 2 3 4
12 13 13 13 13 12 12 13 13 14 14 15 16 17 18 19 19 20 21 22 22 23 23 23 23 23 24 25 26 26 26 26 26 25 23 22 20 19 18 18 19 19 20 22 23 24 24 23 22 21 20 20 20 21 21 22 23 23 24 24 23 23 23 22 20 18 16 16 15 14 13 13 14 14 13 11 9 7 6 4 3 2 1 2 3 4
12 12 12 12 12 12 12 12 13 14 14 15 16 18 18 20 20 21 22 22 22 23 23 23 23 24 24 25 26 27 28 28 28 27 26 26 24 23 22 21 21 22 22 23 24 25 24 23 22 21 20 20 21 22 23 23 23 23 23 23 23 23 22 22 20 17 16 15 14 13 13 14 14 14 13 12 10 8 7 6 5 4 2 2 3 3
11 12 12 12 12 12 12 13 14 14 15 16 17 18 19 20 21 22 22 22 23 23 23 24 25 25 25 26 26 27 28 28 28 28 27 27 27 26 26 26 26 26 26 27 27 27 26 25 23 21 21 21 21 22 24 24 24 23 22 22 22 23 22 21 19 18 16 15 14 13 12 12 13 13 14 13 12 10 8 7 6 5 3 2 3 3
11 11 12 12 12 12 13 14 15 15 16 17 17 18 19 20 21 21 22 22 22 23 23 24 25 26 27 27 27 28 28 28 28 27 27 26 27 27 27 28 28 29 30 30 30 29 29 27 25 23 21 21 22 22 23 24 24 23 22 22 22 22 22 21 20 18 16 15 14 13 12 12 12 12 13 14 13 11 9 8 7 6 5 2 2 2
11 11 12 12 12 13 14 15 16 16 17 18 18 19 19 20 20 21 21 22 22 23 23 24 25 26 27 28 28 28 28 28 28 27 26 26 26 26 27 27 28 29 30 31 32 31 31 30 29 26 23 21 21 22 23 23 23 23 23 22 21 21 21 20 19 18 16 15 14 13 13 12 12 13 14 15 14 13 11 9 8 7 5 2 1 1
Wind_Direction
286 286 287 287 288 289 291 293 295 297 299 301 302 304 306 306 307 307 308 309 310 311 312 313 313 314 315 316 317 319 320 321 321 322 321 321 320 318 317 317 316 316 316 316 316 315 315 314 313 313 312 312 311 310 309 308 308 307 307 306 307 307 308 309 309 309 308 307 305 304 304 305 306 308 307 307 305 303 301 300 300 299 298 299 300 299
287 288 288 288 289 291 293 294 296 297 300 302 303 304 305 305 305 306 307 308 310 311 312 312 313 314 315 316 318 320 321 322 322 322 321 321 319 318 317 317 317 317 317 316 315 315 314 313 312 311 311 311 310 309 309 308 307 307 306 306 307 308 308 308 308 307 306 305 304 303 303 304 306 306 305 304 302 299 297 297 297 297 297 297 297 297
288 288 287 288 290 291 293 294 296 298 300 301 303 303 304 304 305 305 306 308 309 310 312 313 313 314 316 317 319 321 322 322 322 322 321 320 319 318 317 317 317 316 316 315 314 313 312 311 311 310 310 310 309 308 308 307 307 306 307 307 307 308 308 307 306 305 304 303 303 302 303 304 305 304 302 301 300 299 298 299 301 302 302 302 302 302
288 286 286 289 290 292 293 294 296 298 300 301 302 303 304 304 305 306 307 308 310 311 312 314 315 316 317 318 320 321 322 322 322 322 321 320 318 317 316 316 316 315 315 314 312 311 310 310 309 309 309 309 308 308 307 307 307 307 307 307 307 307 306 305 304 303 303 302 302 302 303 303 302 301 300 299 300 300 301 303 304 305 305 305 305 305
286 285 286 288 290 292 293 295 296 298 300 301 302 303 304 305 305 307 308 310 311 312 313 315 316 316 317 319 320 321 321 321 321 321 320 318 317 316 315 314 314 313 313 312 310 310 309 309 309 309 308 308 307 307 306 307 307 308 308 307 307 306 304 303 303 302 302 301 301 302 302 301 301 300 299 299 300 302 303 303 304 305 305 306 306 305
284 285 287 289 290 292 294 295 296 298 300 302 303 304 304 305 306 308 309 310 311 313 314 315 316 316 317 318 319 320 320 320 319 319 318 316 315 313 313 312 312 312 311 310 309 309 309 309 309 309 308 307 306 306 306 307 307 308 308 307 305 304 303 302 301 300 300 300 300 300 300 300 299 299 299 300 301 302 302 302 303 305 305 306 306 306
283 285 288 289 291 293 295 296 297 299 301 302 304 304 305 306 307 308 309 310 312 313 315 316 316 316 316 317 318 318 318 318 318 317 315 314 313 312 311 311 311 311 311 310 310 309 309 309 309 308 307 306 306 306 306 307 308 308 307 306 304 303 301 300 299 299 299 299 299 299 300 300 300 300 301 302 302 302 301 302 303 305 306 307 307 307
283 286 288 290 292 294 295 296 298 299 301 303 304 305 305 306 307 308 310 311 313 314 315 316 316 315 316 316 316 317 317 317 316 316 314 313 312 311 311 311 311 311 311 311 311 310 310 309 309 308 306 306 305 306 307 308 308 308 307 305 303 301 300 299 298 298 298 299 300 301 301 301 301 302 302 302 302 302 303 303 305 306 307 307 307 307
284 286 288 290 292 295 296 297 299 301 302 303 303 304 305 306 308 310 311 313 314 316 317 318 317 317 316 316 317 317 317 317 316 316 315 315 314 313 313 312 312 312 312 312 312 311 310 309 308 307 306 305 305 306 307 308 308 308 306 304 302 300 299 298 298 298 299 299 301 302 302 302 302 303 303 302 302 303 304 305 306 306 307 306 306 307
285 287 289 292 293 295 297 298 300 302 302 303 304 305 306 307 309 312 313 314 316 318 319 320 320 320 319 318 318 318 317 317 317 317 317 317 316 316 316 315 315 315 315 315 314 312 311 310 309 307 306 306 306 307 308 309 308 307 306 304 302 300 299 299 299 300 300 301 302 303 303 303 303 303 303 303 304 304 305 306 307 306 306 306 307 307
286 288 291 293 294 296 298 299 301 302 303 304 305 306 308 310 312 314 316 317 318 320 321 323 323 323 322 321 320 318 318 317 317 316 317 318 318 318 318 318 318 318 318 317 316 314 312 311 309 308 307 307 307 308 309 309 309 308 306 304 302 302 301 301 301 302 303 303 304 305 305 304 304 305 305 305 306 306 306 307 307 306 306 306 307 308
288 290 292 294 295 297 299 300 301 302 304 305 306 307 309 312 314 317 318 320 321 322 323 324 324 324 323 322 321 319 318 318 317 318 319 321 320 319 319 320 320 320 320 319 318 315 313 312 310 309 308 308 309 310 311 310 310 308 307 305 305 304 305 305 305 305 306 306 306 306 306 306 306 307 307 308 308 307 307 307 307 306 306 307 308 309
289 291 293 295 296 298 299 300 301 302 303 305 306 307 309 313 316 318 320 321 322 323 324 325 325 324 323 322 322 321 321 321 320 321 323 325 324 322 322 323 324 323 322 321 320 317 315 313 312 310 310 310 311 311 312 311 310 309 308 307 307 308 309 309 309 309 309 309 308 308 308 308 308 308 309 309 308 307 307 308 307 307 307 307 308 309
289 292 293 295 296 298 299 299 300 301 303 305 307 309 311 314 317 319 321 322 323 323 324 325 324 323 323 324 324 324 325 325 324 324 326 330 329 327 326 327 328 328 325 324 323 321 318 316 314 312 312 312 312 312 312 312 311 310 310 310 311 312 312 312 312 312 311 311 310 310 309 309 309 309 309 309 308 307 307 307 307 307 307 308 309 310
289 291 293 295 297 298 298 298 300 302 304 306 308 311 314 316 319 321 322 323 323 323 323 323 322 323 324 327 328 328 328 329 328 328 329 334 334 331 328 330 331 331 330 328 327 325 323 320 317 315 314 314 314 315 314 314 313 313 313 314 314 315 315 315 314 314 313 312 311 310 310 309 309 309 308 308 307 307 308 307 308 308 308 309 310 311
290 292 294 296 297 297 297 299 301 303 305 307 310 313 316 319 321 322 323 324 324 324 324 324 323 324 327 330 331 331 331 331 331 330 330 335 337 334 331 332 334 335 335 333 331 329 327 323 320 318 318 318 318 318 317 317 317 316 316 317 317 317 317 316 316 315 313 312 311 310 309 308 308 307 307 307 307 308 309 309 309 309 309 310 311 311
291 293 295 297 297 297 298 300 302 304 305 308 311 315 318 321 323 324 325 325 325 326 326 326 327 328 329 332 334 334 332 333 332 331 331 335 337 337 334 335 336 338 340 340 337 334 332 329 326 323 323 322 322 322 321 320 319 319 319 318 318 318 318 318 317 316 314 312 310 309 308 307 307 306 307 307 308 310 310 310 310 310 310 311 312 312
292 294 295 296 297 298 299 301 302 304 307 310 313 317 320 323 325 326 326 327 327 328 329 329 329 329 330 334 336 335 333 333 332 331 330 332 336 338 337 338 340 342 344 344 342 340 338 336 332 329 328 327 327 326 324 322 321 321 320 320 320 320 320 319 318 316 314 312 310 308 307 307 306 307 308 309 310 310 310 310 310 310 311 312 313 314
293 294 295 296 298 299 300 301 302 304 308 311 315 319 322 325 327 328 328 328 329 330 330 330 330 330 330 333 335 335 334 333 332 330 329 331 335 339 339 340 342 345 348 349 347 344 343 341 338 335 332 331 330 328 326 325 324 323 323 322 322 322 321 320 319 316 314 312 310 308 307 306 307 308 309 310 310 310 310 310 311 312 313 314 315 316
294 295 296 297 299 299 300 301 303 306 310 314 317 321 324 327 328 329 329 329 330 330 330 331 331 331 331 332 333 334 334 333 331 329 328 330 335 339 340 341 343 346 350 353 352 349 347 345 342 339 336 334 332 330 329 328 327 326 326 325 324 323 322 320 318 315 313 311 309 308 307 307 309 310 310 310 309 309 310 312 313 314 315 317 318 317
296 297 298 299 300 299 299 301 304 308 313 317 320 324 326 329 330 330 330 331 331 331 331 331 331 331 331 331 332 333 333 332 331 330 329 331 335 340 341 341 342 345 349 352 354 353 351 348 345 342 339 337 335 334 333 332 331 330 329 327 325 323 321 318 316 313 311 309 308 307 307 308 310 312 311 310 309 309 311 313 315 317 319 321 320 315
296 297 299 300 300 300 300 303 306 310 314 319 324 328 330 331 331 331 331 331 331 331 331 331 331 330 330 329 330 332 332 333 333 333 332 331 335 340 341 341 342 344 347 350 352 353 353 351 348 345 342 340 338 337 336 335 334 333 331 329 326 323 320 316 313 310 309 307 307 306 306 309 313 314 312 311 310 311 313 315 317 320 323 322 316 307
297 298 299 301 301 301 302 305 308 312 317 322 327 331 332 333 333 332 332 332 331 331 330 330 329 329 328 327 329 331 334 335 335 335 334 333 335 339 341 341 341 342 346 348 349 349 350 351 350 347 344 342 341 340 339 338 336 335 333 330 327 323 319 314 311 308 307 306 305 305 305 308 311 313 312 310 310 312 315 318 320 323 324 317 306 298
299 300 300 300 301 302 304 307 311 316 321 326 331 334 335 334 334 333 332 332 332 331 331 330 329 328 327 327 330 334 337 338 337 337 335 334 335 338 341 341 340 340 343 345 346 345 347 349 350 349 346 344 343 342 341 340 338 336 334 331 327 323 318 313 310 307 305 304 304 304 305 307 308 309 310 310 310 313 316 319 322 324 319 307 298 294
299 300 300 301 302 304 308 312 317 321 325 330 334 336 337 336 335 334 333 333 333 332 330 329 327 327 327 329 333 337 339 339 338 338 337 335 335 337 341 341 339 338 339 341 342 343 343 347 350 351 349 346 345 344 343 341 339 337 334 331 327 323 318 313 310 307 305 305 304 304 304 306 307 307 308 309 311 314 318 322 324 321 312 301 295 294
299 300 300 302 305 310 316 321 325 328 330 333 336 338 338 337 336 335 334 333 332 330 329 327 326 327 329 331 335 339 340 339 339 340 338 336 335 336 339 340 338 336 337 338 339 340 342 345 349 352 351 349 346 344 343 342 339 337 334 330 327 322 317 313 310 308 307 306 305 305 304 304 304 305 307 309 313 317 321 324 323 315 306 298 295 295
300 301 303 307 313 319 325 329 332 333 334 335 336 337 338 337 336 334 332 331 330 329 328 328 328 329 331 333 336 339 340 340 340 340 339 336 334 334 336 338 337 336 335 335 337 338 341 344 348 351 351 349 347 345 344 342 339 336 333 330 326 322 318 314 311 310 309 309 308 307 306 305 305 305 307 308 313 319 324 325 319 309 301 297 296 296
302 305 309 315 322 327 331 334 335 335 335 335 336 336 336 335 333 331 329 329 328 328 329 330 330 331 332 333 336 339 340 341 340 339 338 335 333 332 335 336 337 336 334 334 334 336 340 344 347 349 350 349 347 345 343 341 338 335 333 331 327 323 319 316 314 313 312 312 311 310 308 306 306 306 306 308 315 324 327 323 315 306 300 299 300 301
308 312 318 323 328 332 334 335 335 335 335 334 334 333 333 331 330 329 328 328 329 329 330 331 331 332 332 332 334 338 341 341 340 337 335 333 331 332 335 335 336 336 335 333 333 335 339 343 347 348 347 346 345 344 343 341 338 336 334 332 329 325 321 319 317 317 316 315 314 312 309 308 307 306 307 312 321 328 327 321 313 307 304 304 305 309
315 320 325 329 332 334 336 336 336 335 334 333 332 331 330 330 329 329 328 329 330 330 331 332 332 333 333 333 334 337 340 340 338 336 333 331 331 333 335 335 335 336 335 334 333 333 336 340 344 346 346 345 344 344 344 342 339 338 337 336 333 329 325 322 321 320 319 317 316 314 312 311 310 309 310 319 329 331 327 321 315 311 309 308 311 315
320 326 330 333 334 336 336 336 336 335 333 332 331 331 330 330 330 330 330 330 331 331 331 332 333 333 334 334 334 334 336 338 336 334 332 330 330 332 334 333 333 334 334 334 333 331 331 334 339 343 345 345 344 345 345 344 342 340 340 340 338 335 330 326 324 323 321 320 319 319 318 317 316 315 317 327 335 333 326 323 321 318 315 315 316 318
325 330 333 335 336 337 337 336 335 335 334 333 332 331 331 331 331 331 331 331 331 331 332 332 333 334 334 334 332 332 334 337 336 333 331 329 330 332 333 331 331 331 332 332 331 329 326 327 333 339 343 344 345 346 346 346 344 343 343 344 343 340 335 330 328 326 326 326 327 327 326 326 326 327 332 339 338 332 325 325 326 324 321 318 317 317
329 333 335 337 337 337 337 336 336 335 334 333 332 332 332 332 331 331 331 331 331 332 333 333 333 333 333 333 333 333 336 337 335 332 331 329 329 329 331 330 329 329 330 330 330 328 325 325 328 334 338 342 345 346 347 347 346 346 346 347 347 344 339 335 333 333 334 335 336 336 336 336 340 345 349 345 336 329 326 327 326 324 320 317 316 314
332 335 337 337 338 337 337 337 336 335 334 333 332 332 332 331 331 331 331 331 332 333 334 334 334 333 333 332 332 334 337 337 334 331 330 328 327 327 328 328 328 328 328 328 328 327 326 325 327 329 332 337 342 346 348 348 348 348 349 350 350 349 345 342 341 341 341 342 343 344 345 349 355 358 355 345 335 328 324 324 319 314 313 314 314 312
333 335 336 337 338 338 338 337 335 334 333 332 331 331 331 331 331 331 331 332 333 334 335 335 335 334 333 332 332 333 335 335 333 331 329 327 326 325 326 327 328 328 327 327 327 326 325 325 326 327 329 333 337 343 348 349 349 349 351 353 355 354 352 349 348 347 347 347 348 351 353 358 0 358 352 343 334 327 320 314 307 301 299 302 307 309
333 335 336 337 337 337 336 334 333 331 331 330 330 331 331 332 332 333 334 335 336 337 337 337 336 335 334 332 331 332 333 333 332 330 328 326 325 324 324 325 327 327 326 325 325 324 323 324 326 327 328 330 333 338 345 348 350 351 352 355 358 359 358 355 353 351 351 352 354 356 358 359 357 352 345 338 330 323 316 310 304 301 299 297 298 303
335 336 336 336 336 335 334 332 331 330 330 330 331 332 333 335 336 337 339 340 340 340 340 339 337 336 334 333 332 332 332 332 331 329 327 325 324 324 323 324 325 326 325 323 322 322 322 323 325 327 329 329 331 334 339 345 350 352 354 356 358 1 2 359 356 354 354 356 358 358 358 356 352 347 342 335 327 320 317 313 310 307 307 306 303 302
336 336 335 334 334 333 333 332 331 331 331 332 334 336 338 340 342 343 343 343 343 342 341 340 338 336 334 333 332 332 332 331 329 327 325 324 324 323 323 323 324 324 323 322 321 321 322 322 324 326 328 330 332 334 338 343 349 352 352 353 355 359 2 1 359 358 358 359 358 357 354 352 349 346 342 337 332 328 326 325 322 319 316 315 313 312
335 334 333 333 333 334 334 333 333 334 335 336 338 341 343 345 347 347 347 345 344 342 341 340 338 336 334 333 331 330 329 328 326 325 323 323 323 323 322 322 321 321 321 321 322 322 323 323 325 326 327 329 332 334 338 343 347 349 348 349 351 354 359 0 1 0 1 0 358 355 352 350 349 346 343 341 337 335 333 334 334 333 331 326 325 327
334 333 333 334 335 335 336 336 336 337 338 340 342 345 347 349 350 349 347 345 343 342 341 340 339 338 335 333 331 329 327 325 324 323 322 322 322 322 322 321 320 320 320 322 323 324 325 326 328 330 331 331 332 334 337 342 346 347 347 346 348 351 356 359 1 1 1 0 358 355 352 349 347 345 343 342 340 337 336 336 337 339 341 344 346 353
334 334 335 336 337 338 338 338 339 340 342 344 346 348 350 350 350 349 347 345 343 342 341 341 340 339 336 333 330 327 325 323 322 322 322 322 322 322 321 320 320 320 321 323 325 327 329 331 332 333 333 332 332 333 335 340 344 346 346 345 345 347 352 357 360 360 359 360 359 356 351 347 344 343 343 343 341 336 329 332 334 338 344 351 352 350
335 336 338 339 340 340 340 340 341 343 345 347 350 351 351 350 349 347 346 345 344 343 342 342 341 340 337 333 329 326 324 322 322 322 323 323 323 323 322 322 322 322 323 325 327 330 333 336 337 337 335 333 332 332 335 340 344 346 346 346 345 346 349 354 358 359 359 0 360 356 351 345 342 341 344 346 343 332 318 318 325 333 341 348 348 344
338 339 341 341 342 342 342 343 344 346 348 350 352 352 351 349 348 347 346 345 345 345 344 343 342 341 338 335 331 328 326 325 325 325 326 325 325 325 325 324 324 325 325 328 330 333 336 339 341 342 339 336 333 333 336 341 345 348 348 348 347 345 344 348 354 359 360 1 360 357 351 345 342 342 346 348 346 335 315 307 311 320 327 332 334 335
342 343 343 344 344 344 345 346 347 349 351 353 353 353 351 349 348 347 347 347 347 346 345 343 342 340 337 335 333 332 332 332 331 331 330 330 329 328 327 327 326 327 328 330 333 336 339 342 345 345 343 340 337 337 340 343 346 348 349 349 348 344 341 345 352 357 358 358 358 357 351 346 343 343 346 352 355 351 333 313 303 303 308 314 317 320
345 345 345 345 346 346 347 348 350 352 353 354 354 352 351 350 349 348 348 348 348 347 345 343 341 338 336 336 336 337 338 338 338 338 336 334 333 331 329 328 328 329 331 333 336 339 343 346 348 350 350 348 346 345 346 346 347 349 351 350 348 346 346 351 354 354 351 351 354 355 352 347 343 343 346 355 7 16 15 358 326 302 301 303 305 307
348 347 346 346 347 349 351 353 354 356 356 354 353 352 351 351 350 350 350 349 348 347 345 342 340 339 338 339 339 340 341 341 341 341 340 338 336 334 332 331 331 333 336 339 342 345 348 350 352 353 355 354 353 354 354 352 349 349 351 350 348 347 348 351 353 353 350 349 350 353 352 348 344 344 347 355 7 21 34 33 29 7 323 305 300 300
349 348 347 348 350 353 355 357 359 359 357 354 352 351 351 352 353 353 352 350 348 346 344 342 341 341 342 343 343 343 343 343 342 342 341 340 340 340 339 338 339 341 344 346 349 352 354 356 357 358 357 354 353 354 357 357 354 350 350 350 349 348 347 349 351 353 352 350 350 351 351 348 346 346 348 354 3 18 36 46 47 35 360 322 308 301
350 349 350 353 356 358 359 0 0 359 357 355 354 354 354 354 354 354 352 351 348 346 344 343 343 345 346 347 347 346 345 345 344 343 343 343 343 344 345 347 349 351 353 355 356 357 359 1 2 1 359 355 352 351 354 356 355 352 350 349 348 347 347 349 352 353 352 351 352 353 352 349 348 347 348 351 360 16 34 46 51 46 17 337 319 311
352 354 356 358 0 1 1 1 0 359 358 357 357 357 357 357 355 354 352 350 348 346 345 345 346 347 348 349 349 348 346 346 346 346 346 347 347 348 350 353 355 357 358 359 360 0 2 4 6 5 1 357 353 350 351 353 354 352 350 349 348 347 347 348 350 351 351 351 352 354 353 350 348 346 346 348 354 7 28 41 47 47 36 356 323 315
356 359 1 4 5 4 3 2 1 0 359 359 359 0 360 358 356 353 350 348 347 348 348 348 349 349 350 351 350 350 349 349 349 350 350 350 351 353 355 357 359 360 360 360 360 0 1 2 6 8 6 1 355 350 348 349 351 351 350 349 349 347 346 347 348 350 350 350 351 352 351 351 350 348 349 349 352 360 16 33 41 43 43 23 331 309
2 4 7 8 7 6 5 3 3 2 1 1 1 1 359 357 354 351 349 348 348 349 351 351 351 352 352 352 352 352 352 352 353 354 354 355 356 358 0 2 2 2 0 359 359 359 359 358 359 4 9 6 359 352 347 346 347 347 347 348 349 348 346 346 347 349 350 350 350 350 350 350 351 353 353 353 352 355 6 23 35 41 45 44 29 262